TimeEDT,TemperatureF,Dew PointF,Humidity,Sea Level PressureIn,VisibilityMPH,Wind Direction,Wind SpeedMPH,Gust SpeedMPH,PrecipitationIn,Events,Conditions,WindDirDegrees,DateUTC
12:29 AM,66.2,66.2,100,30.01,2.5,Calm,Calm,-,N/A,,Clear,0,2013-05-01 04:29:00
12:37 AM,66.2,66.2,100,30.01,4.0,Calm,Calm,-,N/A,,Clear,0,2013-05-01 04:37:00
12:41 AM,66.2,66.2,100,30.01,1.8,Calm,Calm,-,N/A,,Clear,0,2013-05-01 04:41:00
12:51 AM,66.2,66.2,100,30.00,3.0,Calm,Calm,-,N/A,,Clear,0,2013-05-01 04:51:00
12:53 AM,66.9,66.9,100,30.00,5.0,Calm,Calm,-,N/A,,Clear,0,2013-05-01 04:53:00
1:21 AM,66.2,66.2,100,29.98,1.5,Calm,Calm,-,N/A,,Clear,0,2013-05-01 05:21:00
1:30 AM,66.2,66.2,100,29.98,0.8,NE,3.5,-,N/A,,Clear,40,2013-05-01 05:30:00
1:36 AM,66.2,66.2,100,29.98,2.5,NE,3.5,-,N/A,,Clear,40,2013-05-01 05:36:00
1:43 AM,64.4,64.4,100,29.98,8.0,Calm,Calm,-,N/A,,Clear,0,2013-05-01 05:43:00
1:53 AM,64.9,64.9,100,29.98,8.0,North,3.5,-,N/A,,Clear,10,2013-05-01 05:53:00
2:41 AM,66.2,66.2,100,29.97,1.8,Calm,Calm,-,N/A,,Clear,0,2013-05-01 06:41:00
2:53 AM,66.0,66.0,100,29.96,1.0,Calm,Calm,-,N/A,,Clear,0,2013-05-01 06:53:00
2:59 AM,66.2,66.2,100,29.96,0.5,Calm,Calm,-,N/A,Fog,Fog,0,2013-05-01 06:59:00
3:09 AM,64.4,64.4,100,29.96,1.2,Calm,Calm,-,N/A,,Partly Cloudy,0,2013-05-01 07:09:00
3:21 AM,64.4,64.4,100,29.96,4.0,Calm,Calm,-,N/A,,Partly Cloudy,0,2013-05-01 07:21:00
3:53 AM,64.9,64.9,100,29.95,6.0,Calm,Calm,-,N/A,,Clear,0,2013-05-01 07:53:00
4:02 AM,64.4,64.4,100,29.95,1.5,NE,3.5,-,N/A,,Clear,40,2013-05-01 08:02:00
4:11 AM,64.4,64.4,100,29.95,3.0,Calm,Calm,-,N/A,,Clear,0,2013-05-01 08:11:00
4:53 AM,68.0,68.0,100,29.96,6.0,Calm,Calm,-,N/A,,Clear,0,2013-05-01 08:53:00
5:53 AM,66.9,66.9,100,29.95,10.0,Calm,Calm,-,N/A,,Clear,0,2013-05-01 09:53:00
6:53 AM,68.0,68.0,100,29.97,10.0,Calm,Calm,-,N/A,,Mostly Cloudy,0,2013-05-01 10:53:00
8:53 AM,75.0,72.0,90,30.00,10.0,East,3.5,-,N/A,,Clear,90,2013-05-01 12:53:00
10:53 AM,75.9,70.0,82,30.03,10.0,ESE,9.2,-,N/A,,Mostly Cloudy,120,2013-05-01 14:53:00
11:53 AM,80.1,71.1,74,30.02,10.0,East,9.2,-,N/A,,Partly Cloudy,100,2013-05-01 15:53:00
12:53 PM,80.1,69.1,69,30.01,10.0,East,11.5,-,N/A,,Mostly Cloudy,100,2013-05-01 16:53:00
1:53 PM,79.0,68.0,69,30.00,10.0,East,11.5,-,N/A,,Partly Cloudy,80,2013-05-01 17:53:00
2:53 PM,80.1,69.1,69,29.98,10.0,ENE,12.7,-,N/A,,Scattered Clouds,70,2013-05-01 18:53:00
3:53 PM,79.0,70.0,74,29.97,10.0,East,9.2,-,N/A,,Partly Cloudy,80,2013-05-01 19:53:00
4:53 PM,77.0,69.1,76,29.99,10.0,East,6.9,-,N/A,,Clear,100,2013-05-01 20:53:00
5:53 PM,75.0,71.1,87,29.99,5.0,Calm,Calm,-,0.04,Rain,Rain,0,2013-05-01 21:53:00
6:07 PM,73.4,71.6,94,30.00,2.5,SSW,21.9,27.6,0.09,Rain,Heavy Rain,200,2013-05-01 22:07:00
6:16 PM,69.8,66.2,88,29.99,2.5,SSW,15.0,25.3,0.15,Rain,Heavy Rain,210,2013-05-01 22:16:00
6:22 PM,69.8,66.2,88,29.99,1.8,SSW,12.7,-,0.21,Rain,Heavy Rain,210,2013-05-01 22:22:00
6:53 PM,69.1,66.9,93,29.97,6.0,NNW,4.6,-,0.44,Rain,Light Rain,330,2013-05-01 22:53:00
7:53 PM,69.1,66.9,93,29.99,10.0,WNW,4.6,-,0.02,,Mostly Cloudy,300,2013-05-01 23:53:00
8:53 PM,68.0,68.0,100,30.00,10.0,Calm,Calm,-,0.00,Rain,Light Rain,0,2013-05-02 00:53:00
9:53 PM,69.1,66.9,93,29.98,10.0,NE,4.6,-,0.01,,Overcast,40,2013-05-02 01:53:00
10:53 PM,71.1,70.0,96,29.96,10.0,NE,9.2,-,0.01,,Overcast,50,2013-05-02 02:53:00
11:53 PM,72.0,70.0,93,29.95,10.0,ENE,6.9,-,0.00,,Overcast,60,2013-05-02 03:53:00